Time,TemperatureF,DewpointF,PressureIn,WindDirection,WindDirectionDegrees,WindSpeedMPH,WindSpeedGustMPH,Humidity,HourlyPrecipIn,Conditions,Clouds,dailyrainin,SoftwareType,DateUTC
2014-03-13 00:02:00,20.3,6.3,30.15,ESE,112,0.0,0.0,54,0.00,,,0.00,meteohub,2014-03-13 05:02:00,
2014-03-13 00:07:00,20.3,6.3,30.15,ESE,112,0.0,0.0,54,0.00,,,0.00,meteohub,2014-03-13 05:07:00,
2014-03-13 00:13:00,20.1,6.1,30.15,ESE,112,0.0,0.0,54,0.00,,,0.00,meteohub,2014-03-13 05:13:00,
2014-03-13 00:18:00,20.1,6.1,30.18,ESE,112,0.0,0.0,54,0.00,,,0.00,meteohub,2014-03-13 05:18:00,
2014-03-13 00:23:00,19.9,6.1,30.18,ESE,112,0.0,0.0,54,0.00,,,0.00,meteohub,2014-03-13 05:23:00,
2014-03-13 00:28:00,19.9,6.4,30.18,ESE,112,0.0,0.0,55,0.00,,,0.00,meteohub,2014-03-13 05:28:00,
2014-03-13 00:33:00,19.8,6.3,30.18,ESE,112,0.0,0.0,55,0.00,,,0.00,meteohub,2014-03-13 05:33:00,
2014-03-13 00:38:00,19.8,6.3,30.18,ESE,112,2.0,0.0,55,0.00,,,0.00,meteohub,2014-03-13 05:38:00,
2014-03-13 00:43:00,19.8,6.3,30.18,ESE,112,0.0,3.0,55,0.00,,,0.00,meteohub,2014-03-13 05:43:00,
2014-03-13 00:48:00,19.6,6.1,30.18,ESE,112,3.0,3.0,55,0.00,,,0.00,meteohub,2014-03-13 05:48:00,
2014-03-13 00:53:00,19.6,6.1,30.18,ESE,112,0.0,3.0,55,0.00,,,0.00,meteohub,2014-03-13 05:53:00,
2014-03-13 00:58:00,19.4,5.9,30.18,ESE,112,0.0,3.0,55,0.00,,,0.00,meteohub,2014-03-13 05:58:00,
2014-03-13 01:03:00,19.4,6.3,30.18,ESE,112,0.0,3.0,56,0.00,,,0.00,meteohub,2014-03-13 06:03:00,
2014-03-13 01:08:00,19.2,5.7,30.18,ESE,112,4.0,4.0,55,0.00,,,0.00,meteohub,2014-03-13 06:08:00,
2014-03-13 01:13:00,19.0,5.5,30.18,ESE,112,3.0,4.0,55,0.00,,,0.00,meteohub,2014-03-13 06:13:00,
2014-03-13 01:18:00,19.0,5.5,30.18,ESE,112,0.0,4.0,55,0.00,,,0.00,meteohub,2014-03-13 06:18:00,
2014-03-13 01:23:00,19.0,5.5,30.18,ESE,112,0.0,4.0,55,0.00,,,0.00,meteohub,2014-03-13 06:23:00,
2014-03-13 01:28:00,19.0,5.5,30.18,ESE,112,0.0,3.0,55,0.00,,,0.00,meteohub,2014-03-13 06:28:00,
2014-03-13 02:39:00,18.0,4.5,30.18,South,180,0.0,0.0,55,0.00,,,0.00,meteohub,2014-03-13 07:39:00,
2014-03-13 02:44:00,17.8,4.5,30.18,South,180,0.0,0.0,55,0.00,,,0.00,meteohub,2014-03-13 07:44:00,
2014-03-13 02:54:00,17.8,4.5,30.18,South,180,0.0,0.0,55,0.00,,,0.00,meteohub,2014-03-13 07:54:00,
2014-03-13 02:59:00,17.6,4.6,30.18,South,180,0.0,0.0,56,0.00,,,0.00,meteohub,2014-03-13 07:59:00,
2014-03-13 03:04:00,17.6,4.6,30.18,South,180,0.0,0.0,56,0.00,,,0.00,meteohub,2014-03-13 08:04:00,
2014-03-13 03:09:00,17.4,4.5,30.18,South,180,0.0,0.0,56,0.00,,,0.00,meteohub,2014-03-13 08:09:00,
2014-03-13 03:14:00,17.4,4.5,30.18,South,180,0.0,2.0,56,0.00,,,0.00,meteohub,2014-03-13 08:14:00,
2014-03-13 03:19:00,17.4,4.5,30.18,South,180,2.0,2.0,56,0.00,,,0.00,meteohub,2014-03-13 08:19:00,
2014-03-13 03:24:00,17.4,4.5,30.18,ESE,112,0.0,2.0,56,0.00,,,0.00,meteohub,2014-03-13 08:24:00,
2014-03-13 03:29:00,17.4,4.8,30.18,SE,135,6.0,6.0,57,0.00,,,0.00,meteohub,2014-03-13 08:29:00,
2014-03-13 03:34:00,17.6,5.0,30.15,ESE,112,0.0,6.0,57,0.00,,,0.00,meteohub,2014-03-13 08:34:00,
2014-03-13 03:39:00,17.6,5.0,30.15,SSW,202,0.0,6.0,57,0.00,,,0.00,meteohub,2014-03-13 08:39:00,
2014-03-13 03:44:00,17.6,5.0,30.15,SSW,202,0.0,6.0,57,0.00,,,0.00,meteohub,2014-03-13 08:44:00,
2014-03-13 03:49:00,17.6,5.0,30.15,SSW,202,0.0,3.0,57,0.00,,,0.00,meteohub,2014-03-13 08:49:00,
2014-03-13 03:54:00,17.4,4.8,30.15,SSW,202,3.0,0.0,57,0.00,,,0.00,meteohub,2014-03-13 08:54:00,
2014-03-13 03:59:00,17.4,4.8,30.15,SW,225,0.0,2.0,57,0.00,,,0.00,meteohub,2014-03-13 08:59:00,
2014-03-13 04:04:00,17.1,4.5,30.18,SSW,202,0.0,3.0,57,0.00,,,0.00,meteohub,2014-03-13 09:04:00,
2014-03-13 04:09:00,17.2,4.6,30.18,SSW,202,0.0,3.0,57,0.00,,,0.00,meteohub,2014-03-13 09:09:00,
2014-03-13 04:14:00,17.2,4.6,30.18,SSW,202,2.0,2.0,57,0.00,,,0.00,meteohub,2014-03-13 09:14:00,
2014-03-13 04:19:00,17.1,4.5,30.18,South,180,0.0,2.0,57,0.00,,,0.00,meteohub,2014-03-13 09:19:00,
2014-03-13 04:25:00,17.1,4.5,30.18,SSW,202,4.0,4.0,57,0.00,,,0.00,meteohub,2014-03-13 09:25:00,
2014-03-13 04:30:00,17.2,5.0,30.18,South,180,0.0,3.0,58,0.00,,,0.00,meteohub,2014-03-13 09:30:00,
2014-03-13 04:35:00,17.4,5.2,30.15,South,180,2.0,4.0,58,0.00,,,0.00,meteohub,2014-03-13 09:35:00,
2014-03-13 04:40:00,17.4,5.2,30.15,ESE,112,0.0,4.0,58,0.00,,,0.00,meteohub,2014-03-13 09:40:00,
2014-03-13 04:45:00,17.4,5.2,30.15,South,180,2.0,3.0,58,0.00,,,0.00,meteohub,2014-03-13 09:45:00,
2014-03-13 04:50:00,17.4,5.5,30.15,SSW,202,2.0,2.0,59,0.00,,,0.00,meteohub,2014-03-13 09:50:00,
2014-03-13 04:55:00,17.6,5.7,30.15,WSW,248,2.0,3.0,59,0.00,,,0.00,meteohub,2014-03-13 09:55:00,
2014-03-13 05:00:00,17.6,5.7,30.15,SSE,158,2.0,4.0,59,0.00,,,0.00,meteohub,2014-03-13 10:00:00,
2014-03-13 05:05:00,17.6,5.7,30.15,SW,225,2.0,4.0,59,0.00,,,0.00,meteohub,2014-03-13 10:05:00,
2014-03-13 05:10:00,17.6,6.1,30.15,SSW,202,2.0,3.0,60,0.00,,,0.00,meteohub,2014-03-13 10:10:00,
2014-03-13 05:15:00,17.6,6.1,30.15,SE,135,3.0,3.0,60,0.00,,,0.00,meteohub,2014-03-13 10:15:00,
2014-03-13 05:20:00,17.6,6.1,30.15,South,180,2.0,2.0,60,0.00,,,0.00,meteohub,2014-03-13 10:20:00,
2014-03-13 05:25:00,17.6,6.1,30.15,SSE,158,2.0,4.0,60,0.00,,,0.00,meteohub,2014-03-13 10:25:00,
2014-03-13 05:30:00,17.6,6.4,30.15,SSW,202,2.0,4.0,61,0.00,,,0.00,meteohub,2014-03-13 10:30:00,
2014-03-13 05:35:00,17.6,6.4,30.15,South,180,2.0,4.0,61,0.00,,,0.00,meteohub,2014-03-13 10:35:00,
2014-03-13 05:40:00,17.6,6.4,30.15,WSW,248,0.0,4.0,61,0.00,,,0.00,meteohub,2014-03-13 10:40:00,
2014-03-13 05:45:00,17.6,6.4,30.18,SSE,158,2.0,4.0,61,0.00,,,0.00,meteohub,2014-03-13 10:45:00,
2014-03-13 05:50:00,17.6,6.8,30.18,SSW,202,2.0,3.0,62,0.00,,,0.00,meteohub,2014-03-13 10:50:00,
2014-03-13 05:55:00,17.6,6.8,30.18,SSE,158,2.0,3.0,62,0.00,,,0.00,meteohub,2014-03-13 10:55:00,
2014-03-13 06:00:00,17.6,6.8,30.15,South,180,2.0,2.0,62,0.00,,,0.00,meteohub,2014-03-13 11:00:00,
2014-03-13 06:05:00,17.6,6.8,30.15,SSW,202,2.0,3.0,62,0.00,,,0.00,meteohub,2014-03-13 11:05:00,
2014-03-13 06:10:00,17.6,6.8,30.15,South,180,0.0,3.0,62,0.00,,,0.00,meteohub,2014-03-13 11:10:00,
2014-03-13 06:15:00,17.6,6.8,30.15,SSW,202,2.0,4.0,62,0.00,,,0.00,meteohub,2014-03-13 11:15:00,
2014-03-13 06:20:00,17.6,6.8,30.15,SW,225,2.0,4.0,62,0.00,,,0.00,meteohub,2014-03-13 11:20:00,
2014-03-13 06:25:00,17.6,6.8,30.15,SW,225,2.0,4.0,62,0.00,,,0.00,meteohub,2014-03-13 11:25:00,
2014-03-13 06:30:00,17.6,6.8,30.15,SSE,158,2.0,3.0,62,0.00,,,0.00,meteohub,2014-03-13 11:30:00,
2014-03-13 06:35:00,17.6,7.2,30.15,SSE,158,2.0,4.0,63,0.00,,,0.00,meteohub,2014-03-13 11:35:00,
2014-03-13 06:40:00,17.4,7.0,30.15,SSE,158,2.0,4.0,63,0.00,,,0.00,meteohub,2014-03-13 11:40:00,
2014-03-13 06:45:00,17.6,7.2,30.15,SSW,202,2.0,4.0,63,0.00,,,0.00,meteohub,2014-03-13 11:45:00,
2014-03-13 06:50:00,17.6,7.2,30.15,South,180,2.0,3.0,63,0.00,,,0.00,meteohub,2014-03-13 11:50:00,
2014-03-13 06:55:00,17.4,7.0,30.15,SSW,202,2.0,4.0,63,0.00,,,0.00,meteohub,2014-03-13 11:55:00,
2014-03-13 07:00:00,17.6,7.2,30.15,SSW,202,2.0,4.0,63,0.00,,,0.00,meteohub,2014-03-13 12:00:00,
2014-03-13 07:05:00,17.6,7.2,30.15,SW,225,0.0,4.0,63,0.00,,,0.00,meteohub,2014-03-13 12:05:00,
2014-03-13 07:10:00,17.6,7.5,30.15,SSW,202,2.0,4.0,64,0.00,,,0.00,meteohub,2014-03-13 12:10:00,
2014-03-13 07:15:00,17.4,7.3,30.12,South,180,2.0,2.0,64,0.00,,,0.00,meteohub,2014-03-13 12:15:00,
2014-03-13 07:20:00,17.4,7.3,30.12,SW,225,0.0,4.0,64,0.00,,,0.00,meteohub,2014-03-13 12:20:00,
2014-03-13 07:25:00,17.4,7.3,30.12,SSE,158,2.0,4.0,64,0.00,,,0.00,meteohub,2014-03-13 12:25:00,
2014-03-13 07:30:00,17.6,7.5,30.12,South,180,0.0,4.0,64,0.00,,,0.00,meteohub,2014-03-13 12:30:00,
2014-03-13 07:35:00,17.6,7.9,30.15,SSE,158,3.0,4.0,65,0.00,,,0.00,meteohub,2014-03-13 12:35:00,
2014-03-13 07:40:00,17.8,8.1,30.15,South,180,3.0,4.0,65,0.00,,,0.00,meteohub,2014-03-13 12:40:00,
2014-03-13 07:45:00,18.0,8.2,30.15,SSW,202,0.0,4.0,65,0.00,,,0.00,meteohub,2014-03-13 12:45:00,
2014-03-13 07:50:00,18.3,8.6,30.15,ESE,112,0.0,4.0,65,0.00,,,0.00,meteohub,2014-03-13 12:50:00,
2014-03-13 07:55:00,18.5,9.1,30.15,South,180,3.0,4.0,66,0.00,,,0.00,meteohub,2014-03-13 12:55:00,
2014-03-13 08:00:00,19.0,9.5,30.15,SSW,202,3.0,7.0,66,0.00,,,0.00,meteohub,2014-03-13 13:00:00,
2014-03-13 08:05:00,19.2,9.7,30.15,West,270,2.0,7.0,66,0.00,,,0.00,meteohub,2014-03-13 13:05:00,
2014-03-13 08:10:00,19.6,10.0,30.15,SSW,202,3.0,7.0,66,0.00,,,0.00,meteohub,2014-03-13 13:10:00,
2014-03-13 08:15:00,19.8,10.2,30.15,SW,225,3.0,5.0,66,0.00,,,0.00,meteohub,2014-03-13 13:15:00,
2014-03-13 08:20:00,20.1,10.9,30.18,SE,135,5.0,5.0,67,0.00,,,0.00,meteohub,2014-03-13 13:20:00,
2014-03-13 08:25:00,20.3,11.1,30.18,South,180,2.0,5.0,67,0.00,,,0.00,meteohub,2014-03-13 13:25:00,
2014-03-13 08:30:00,20.7,11.5,30.15,SSE,158,3.0,5.0,67,0.00,,,0.00,meteohub,2014-03-13 13:30:00,
2014-03-13 08:35:00,21.0,11.8,30.15,SSE,158,4.0,5.0,67,0.00,,,0.00,meteohub,2014-03-13 13:35:00,
2014-03-13 08:40:00,21.0,11.8,30.15,NW,315,3.0,6.0,67,0.00,,,0.00,meteohub,2014-03-13 13:40:00,
2014-03-13 08:46:00,21.6,12.4,30.15,SSE,158,4.0,6.0,67,0.00,,,0.00,meteohub,2014-03-13 13:46:00,
2014-03-13 08:51:00,22.3,13.3,30.18,SE,135,4.0,6.0,68,0.00,,,0.00,meteohub,2014-03-13 13:51:00,
2014-03-13 08:56:00,22.3,13.6,30.18,SE,135,2.0,7.0,69,0.00,,,0.00,meteohub,2014-03-13 13:56:00,
2014-03-13 09:01:00,23.4,14.7,30.15,South,180,7.0,7.0,69,0.00,,,0.00,meteohub,2014-03-13 14:01:00,
2014-03-13 09:06:00,24.3,15.6,30.15,South,180,4.0,7.0,69,0.00,,,0.00,meteohub,2014-03-13 14:06:00,
2014-03-13 09:11:00,24.6,16.0,30.15,WSW,248,4.0,7.0,69,0.00,,,0.00,meteohub,2014-03-13 14:11:00,
2014-03-13 09:16:00,25.0,16.0,30.12,SE,135,4.0,7.0,68,0.00,,,0.00,meteohub,2014-03-13 14:16:00,
2014-03-13 09:21:00,25.3,16.3,30.12,SSE,158,3.0,6.0,68,0.00,,,0.00,meteohub,2014-03-13 14:21:00,
2014-03-13 09:26:00,25.3,16.3,30.12,SSE,158,5.0,7.0,68,0.00,,,0.00,meteohub,2014-03-13 14:26:00,
2014-03-13 09:31:00,25.3,16.0,30.12,South,180,3.0,7.0,67,0.00,,,0.00,meteohub,2014-03-13 14:31:00,
2014-03-13 09:36:00,25.3,16.0,30.12,SSE,158,4.0,7.0,67,0.00,,,0.00,meteohub,2014-03-13 14:36:00,
2014-03-13 09:41:00,25.3,16.0,30.12,SSW,202,5.0,6.0,67,0.00,,,0.00,meteohub,2014-03-13 14:41:00,
2014-03-13 09:46:00,25.5,16.2,30.12,SSE,158,6.0,6.0,67,0.00,,,0.00,meteohub,2014-03-13 14:46:00,
2014-03-13 09:51:00,25.7,16.3,30.12,SSE,158,4.0,10.0,67,0.00,,,0.00,meteohub,2014-03-13 14:51:00,
2014-03-13 09:56:00,25.7,16.3,30.12,SE,135,5.0,10.0,67,0.00,,,0.00,meteohub,2014-03-13 14:56:00,
2014-03-13 10:01:00,25.9,16.5,30.12,SSW,202,7.0,10.0,67,0.00,,,0.00,meteohub,2014-03-13 15:01:00,
2014-03-13 10:06:00,26.1,16.7,30.12,SE,135,4.0,9.0,67,0.00,,,0.00,meteohub,2014-03-13 15:06:00,
2014-03-13 10:11:00,26.2,17.1,30.12,South,180,5.0,10.0,68,0.00,,,0.00,meteohub,2014-03-13 15:11:00,
2014-03-13 10:16:00,26.6,17.4,30.09,SE,135,6.0,10.0,68,0.00,,,0.00,meteohub,2014-03-13 15:16:00,
2014-03-13 10:21:00,27.0,17.4,30.09,SSW,202,6.0,9.0,67,0.00,,,0.00,meteohub,2014-03-13 15:21:00,
2014-03-13 10:26:00,27.0,17.4,30.09,ESE,112,6.0,7.0,67,0.00,,,0.00,meteohub,2014-03-13 15:26:00,
2014-03-13 10:31:00,27.1,17.6,30.12,SE,135,11.0,11.0,67,0.00,,,0.00,meteohub,2014-03-13 15:31:00,
2014-03-13 10:36:00,27.3,17.8,30.12,South,180,2.0,11.0,67,0.00,,,0.00,meteohub,2014-03-13 15:36:00,
2014-03-13 10:42:00,27.9,18.3,30.12,SSE,158,5.0,11.0,67,0.00,,,0.00,meteohub,2014-03-13 15:42:00,
2014-03-13 10:47:00,28.0,18.5,30.12,SSE,158,6.0,11.0,67,0.00,,,0.00,meteohub,2014-03-13 15:47:00,
2014-03-13 10:52:00,28.4,18.9,30.12,SE,135,5.0,7.0,67,0.00,,,0.00,meteohub,2014-03-13 15:52:00,
2014-03-13 10:57:00,28.8,18.9,30.12,SSE,158,6.0,7.0,66,0.00,,,0.00,meteohub,2014-03-13 15:57:00,
2014-03-13 11:02:00,29.3,19.4,30.12,SSE,158,6.0,7.0,66,0.00,,,0.00,meteohub,2014-03-13 16:02:00,
2014-03-13 11:07:00,29.8,19.9,30.12,SSW,202,5.0,8.0,66,0.00,,,0.00,meteohub,2014-03-13 16:07:00,
2014-03-13 11:12:00,30.4,19.8,30.12,SE,135,5.0,8.0,64,0.00,,,0.00,meteohub,2014-03-13 16:12:00,
2014-03-13 11:17:00,30.9,19.8,30.12,SSW,202,7.0,10.0,63,0.00,,,0.00,meteohub,2014-03-13 16:17:00,
2014-03-13 11:22:00,31.5,20.3,30.12,SSE,158,4.0,10.0,63,0.00,,,0.00,meteohub,2014-03-13 16:22:00,
2014-03-13 11:27:00,31.8,20.3,30.12,SSE,158,7.0,10.0,62,0.00,,,0.00,meteohub,2014-03-13 16:27:00,
2014-03-13 11:32:00,31.8,19.9,30.12,South,180,6.0,9.0,61,0.00,,,0.00,meteohub,2014-03-13 16:32:00,
2014-03-13 11:37:00,31.8,19.6,30.12,WNW,292,6.0,8.0,60,0.00,,,0.00,meteohub,2014-03-13 16:37:00,
2014-03-13 11:42:00,32.0,19.4,30.12,SSE,158,6.0,8.0,59,0.00,,,0.00,meteohub,2014-03-13 16:42:00,
2014-03-13 11:47:00,32.4,19.8,30.09,SSE,158,6.0,10.0,59,0.00,,,0.00,meteohub,2014-03-13 16:47:00,
2014-03-13 11:53:00,32.7,19.9,30.09,SE,135,4.0,10.0,59,0.00,,,0.00,meteohub,2014-03-13 16:53:00,
2014-03-13 11:58:00,33.1,20.3,30.09,South,180,4.0,10.0,59,0.00,,,0.00,meteohub,2014-03-13 16:58:00,
2014-03-13 12:03:00,33.1,19.9,30.06,SE,135,6.0,10.0,58,0.00,,,0.00,meteohub,2014-03-13 17:03:00,
2014-03-13 12:08:00,33.6,20.5,30.06,SSE,158,7.0,8.0,58,0.00,,,0.00,meteohub,2014-03-13 17:08:00,
2014-03-13 12:13:00,33.8,20.3,30.06,SSW,202,6.0,8.0,57,0.00,,,0.00,meteohub,2014-03-13 17:13:00,
2014-03-13 12:18:00,33.8,19.8,30.06,SSW,202,6.0,10.0,56,0.00,,,0.00,meteohub,2014-03-13 17:18:00,
2014-03-13 12:23:00,34.2,19.8,30.06,South,180,6.0,10.0,55,0.00,,,0.00,meteohub,2014-03-13 17:23:00,
2014-03-13 12:28:00,34.2,19.2,30.06,SSE,158,10.0,10.0,54,0.00,,,0.00,meteohub,2014-03-13 17:28:00,
2014-03-13 12:33:00,34.3,19.9,30.06,SW,225,7.0,10.0,55,0.00,,,0.00,meteohub,2014-03-13 17:33:00,
2014-03-13 12:38:00,34.3,19.4,30.06,SE,135,5.0,10.0,54,0.00,,,0.00,meteohub,2014-03-13 17:38:00,
2014-03-13 12:43:00,34.5,19.6,30.06,WSW,248,7.0,13.0,54,0.00,,,0.00,meteohub,2014-03-13 17:43:00,
2014-03-13 12:48:00,34.9,19.9,30.06,SSE,158,6.0,13.0,54,0.00,,,0.00,meteohub,2014-03-13 17:48:00,
2014-03-13 12:53:00,34.7,19.4,30.06,SSE,158,6.0,13.0,53,0.00,,,0.00,meteohub,2014-03-13 17:53:00,
2014-03-13 12:58:00,34.7,19.4,30.06,SE,135,5.0,7.0,53,0.00,,,0.00,meteohub,2014-03-13 17:58:00,
2014-03-13 13:03:00,34.9,19.6,30.06,SSW,202,6.0,13.0,53,0.00,,,0.00,meteohub,2014-03-13 18:03:00,
2014-03-13 13:08:00,34.9,19.9,30.06,SE,135,6.0,13.0,54,0.00,,,0.00,meteohub,2014-03-13 18:08:00,
2014-03-13 13:13:00,35.4,20.5,30.06,ESE,112,9.0,13.0,54,0.00,,,0.00,meteohub,2014-03-13 18:13:00,
2014-03-13 13:18:00,35.6,20.7,30.03,SSE,158,10.0,13.0,54,0.00,,,0.00,meteohub,2014-03-13 18:18:00,
2014-03-13 13:23:00,35.8,20.8,30.03,SSE,158,8.0,13.0,54,0.00,,,0.00,meteohub,2014-03-13 18:23:00,
2014-03-13 13:28:00,36.1,20.7,30.03,SSE,158,7.0,13.0,53,0.00,,,0.00,meteohub,2014-03-13 18:28:00,
2014-03-13 13:33:00,36.3,20.8,30.03,SE,135,9.0,10.0,53,0.00,,,0.00,meteohub,2014-03-13 18:33:00,
2014-03-13 13:38:00,36.1,20.7,30.03,SSE,158,7.0,9.0,53,0.00,,,0.00,meteohub,2014-03-13 18:38:00,
2014-03-13 13:43:00,36.0,20.5,30.03,South,180,9.0,9.0,53,0.00,,,0.00,meteohub,2014-03-13 18:43:00,
2014-03-13 13:48:00,36.0,20.5,30.03,SSE,158,5.0,9.0,53,0.00,,,0.00,meteohub,2014-03-13 18:48:00,
2014-03-13 13:53:00,35.6,20.1,30.03,SSW,202,7.0,11.0,53,0.00,,,0.00,meteohub,2014-03-13 18:53:00,
2014-03-13 13:59:00,35.2,20.3,30.03,SE,135,10.0,13.0,54,0.00,,,0.00,meteohub,2014-03-13 18:59:00,
2014-03-13 14:04:00,34.9,19.9,30.03,SSE,158,5.0,13.0,54,0.00,,,0.00,meteohub,2014-03-13 19:04:00,
2014-03-13 14:09:00,34.7,19.8,30.03,WNW,292,6.0,13.0,54,0.00,,,0.00,meteohub,2014-03-13 19:09:00,
2014-03-13 14:14:00,34.7,20.3,30.03,South,180,6.0,10.0,55,0.00,,,0.00,meteohub,2014-03-13 19:14:00,
2014-03-13 14:19:00,34.7,20.7,30.03,SE,135,6.0,9.0,56,0.00,,,0.00,meteohub,2014-03-13 19:19:00,
2014-03-13 14:24:00,34.7,20.7,30.03,SSE,158,9.0,9.0,56,0.00,,,0.00,meteohub,2014-03-13 19:24:00,
2014-03-13 14:29:00,34.5,20.8,30.03,SSE,158,5.0,9.0,57,0.00,,,0.00,meteohub,2014-03-13 19:29:00,
2014-03-13 14:34:00,34.7,21.6,30.00,South,180,6.0,9.0,58,0.00,,,0.00,meteohub,2014-03-13 19:34:00,
2014-03-13 14:39:00,34.7,21.6,30.00,SSE,158,6.0,10.0,58,0.00,,,0.00,meteohub,2014-03-13 19:39:00,
2014-03-13 14:44:00,34.9,22.1,30.00,SE,135,5.0,10.0,59,0.00,,,0.00,meteohub,2014-03-13 19:44:00,
2014-03-13 14:49:00,34.9,22.1,30.00,ESE,112,7.0,10.0,59,0.00,,,0.00,meteohub,2014-03-13 19:49:00,
2014-03-13 14:54:00,35.1,22.6,30.00,SSE,158,6.0,8.0,60,0.00,,,0.00,meteohub,2014-03-13 19:54:00,
2014-03-13 14:59:00,35.2,22.8,30.00,SSE,158,6.0,8.0,60,0.00,,,0.00,meteohub,2014-03-13 19:59:00,
2014-03-13 15:04:00,35.4,23.0,30.00,SE,135,6.0,8.0,60,0.00,,,0.00,meteohub,2014-03-13 20:04:00,
2014-03-13 15:09:00,35.6,23.2,30.00,ESE,112,3.0,8.0,60,0.00,,,0.00,meteohub,2014-03-13 20:09:00,
2014-03-13 15:14:00,35.6,22.6,30.00,SW,225,10.0,10.0,59,0.00,,,0.00,meteohub,2014-03-13 20:14:00,
2014-03-13 15:19:00,35.6,22.6,30.00,SSE,158,6.0,13.0,59,0.00,,,0.00,meteohub,2014-03-13 20:19:00,
2014-03-13 15:24:00,35.8,22.8,30.00,West,270,6.0,13.0,59,0.00,,,0.00,meteohub,2014-03-13 20:24:00,
2014-03-13 15:29:00,35.8,22.8,29.97,SSW,202,7.0,13.0,59,0.00,,,0.00,meteohub,2014-03-13 20:29:00,
2014-03-13 15:34:00,35.8,22.8,29.97,South,180,6.0,15.0,59,0.00,,,0.00,meteohub,2014-03-13 20:34:00,
2014-03-13 15:39:00,36.0,23.5,29.97,WSW,248,7.0,15.0,60,0.00,,,0.00,meteohub,2014-03-13 20:39:00,
2014-03-13 15:44:00,36.0,23.5,29.97,West,270,10.0,15.0,60,0.00,,,0.00,meteohub,2014-03-13 20:44:00,
2014-03-13 15:49:00,36.0,23.5,30.00,West,270,7.0,11.0,60,0.00,,,0.00,meteohub,2014-03-13 20:49:00,
2014-03-13 15:55:00,36.0,23.9,30.00,SSW,202,6.0,13.0,61,0.00,,,0.00,meteohub,2014-03-13 20:55:00,
2014-03-13 16:00:00,36.1,24.1,30.00,SSW,202,4.0,13.0,61,0.00,,,0.00,meteohub,2014-03-13 21:00:00,
2014-03-13 16:05:00,36.1,24.1,30.00,SSE,158,9.0,12.0,61,0.00,,,0.00,meteohub,2014-03-13 21:05:00,
2014-03-13 16:10:00,36.1,24.4,30.00,SSW,202,6.0,11.0,62,0.00,,,0.00,meteohub,2014-03-13 21:10:00,
2014-03-13 16:15:00,36.3,24.6,30.00,SE,135,9.0,11.0,62,0.00,,,0.00,meteohub,2014-03-13 21:15:00,
2014-03-13 16:20:00,36.3,24.6,30.00,NW,315,6.0,13.0,62,0.00,,,0.00,meteohub,2014-03-13 21:20:00,
2014-03-13 16:25:00,36.5,24.8,30.00,SSE,158,5.0,13.0,62,0.00,,,0.00,meteohub,2014-03-13 21:25:00,
2014-03-13 16:30:00,36.5,24.8,30.00,ESE,112,5.0,13.0,62,0.00,,,0.00,meteohub,2014-03-13 21:30:00,
2014-03-13 16:35:00,36.5,24.8,30.00,SE,135,5.0,11.0,62,0.00,,,0.00,meteohub,2014-03-13 21:35:00,
2014-03-13 16:40:00,36.7,25.3,30.00,SW,225,4.0,11.0,63,0.00,,,0.00,meteohub,2014-03-13 21:40:00,
2014-03-13 16:45:00,36.7,25.3,30.00,SSW,202,4.0,10.0,63,0.00,,,0.00,meteohub,2014-03-13 21:45:00,
2014-03-13 16:50:00,36.7,25.3,30.00,SSW,202,3.0,9.0,63,0.00,,,0.00,meteohub,2014-03-13 21:50:00,
2014-03-13 16:55:00,36.7,25.3,30.00,South,180,4.0,6.0,63,0.00,,,0.00,meteohub,2014-03-13 21:55:00,
2014-03-13 17:00:00,36.7,25.3,29.97,SSE,158,4.0,7.0,63,0.00,,,0.00,meteohub,2014-03-13 22:00:00,
2014-03-13 17:05:00,36.9,25.5,29.97,SSE,158,4.0,7.0,63,0.00,,,0.00,meteohub,2014-03-13 22:05:00,
2014-03-13 17:10:00,36.9,25.9,29.97,SW,225,10.0,11.0,64,0.00,,,0.00,meteohub,2014-03-13 22:10:00,
2014-03-13 17:15:00,36.9,25.9,29.97,SW,225,10.0,11.0,64,0.00,,,0.00,meteohub,2014-03-13 22:15:00,
2014-03-13 17:20:00,36.9,25.9,29.97,West,270,6.0,11.0,64,0.00,,,0.00,meteohub,2014-03-13 22:20:00,
2014-03-13 17:25:00,36.9,25.9,29.97,SSE,158,3.0,10.0,64,0.00,,,0.00,meteohub,2014-03-13 22:25:00,
2014-03-13 17:30:00,36.9,25.9,29.97,SSW,202,3.0,7.0,64,0.00,,,0.00,meteohub,2014-03-13 22:30:00,
2014-03-13 17:35:00,36.9,26.2,29.97,SSE,158,7.0,10.0,65,0.00,,,0.00,meteohub,2014-03-13 22:35:00,
2014-03-13 17:40:00,36.9,26.2,29.97,South,180,4.0,10.0,65,0.00,,,0.00,meteohub,2014-03-13 22:40:00,
2014-03-13 17:45:00,36.9,26.2,29.94,SW,225,4.0,10.0,65,0.00,,,0.00,meteohub,2014-03-13 22:45:00,
2014-03-13 17:50:00,36.7,26.1,29.94,SSE,158,4.0,7.0,65,0.00,,,0.00,meteohub,2014-03-13 22:50:00,
2014-03-13 17:55:00,36.7,26.1,29.94,SSE,158,4.0,6.0,65,0.00,,,0.00,meteohub,2014-03-13 22:55:00,
2014-03-13 18:00:00,36.7,26.4,29.94,SSE,158,5.0,6.0,66,0.00,,,0.00,meteohub,2014-03-13 23:00:00,
2014-03-13 18:05:00,36.5,26.6,29.94,SSE,158,6.0,6.0,67,0.00,,,0.00,meteohub,2014-03-13 23:05:00,
2014-03-13 18:10:00,36.3,26.4,29.94,South,180,6.0,6.0,67,0.00,,,0.00,meteohub,2014-03-13 23:10:00,
2014-03-13 18:15:00,36.3,26.8,29.94,SSW,202,7.0,7.0,68,0.00,,,0.00,meteohub,2014-03-13 23:15:00,
2014-03-13 18:20:00,36.3,26.8,29.94,SSW,202,7.0,7.0,68,0.00,,,0.00,meteohub,2014-03-13 23:20:00,
2014-03-13 18:25:00,36.1,26.6,29.94,SSE,158,5.0,7.0,68,0.00,,,0.00,meteohub,2014-03-13 23:25:00,
2014-03-13 18:30:00,36.1,27.0,29.94,SE,135,6.0,8.0,69,0.00,,,0.00,meteohub,2014-03-13 23:30:00,
2014-03-13 18:35:00,36.1,27.0,29.94,SSE,158,4.0,8.0,69,0.00,,,0.00,meteohub,2014-03-13 23:35:00,
2014-03-13 18:40:00,36.0,27.1,29.94,SE,135,6.0,8.0,70,0.00,,,0.00,meteohub,2014-03-13 23:40:00,
2014-03-13 18:45:00,35.8,27.0,29.94,SSE,158,4.0,7.0,70,0.00,,,0.00,meteohub,2014-03-13 23:45:00,
2014-03-13 18:50:00,35.4,26.6,29.94,SE,135,4.0,6.0,70,0.00,,,0.00,meteohub,2014-03-13 23:50:00,
2014-03-13 18:55:00,35.1,26.2,29.94,SSE,158,5.0,6.0,70,0.00,,,0.00,meteohub,2014-03-13 23:55:00,
2014-03-13 19:00:00,34.9,26.1,29.94,South,180,6.0,6.0,70,0.00,,,0.00,meteohub,2014-03-14 00:00:00,
2014-03-13 19:05:00,34.5,26.1,29.94,SSE,158,6.0,6.0,71,0.00,,,0.00,meteohub,2014-03-14 00:05:00,
2014-03-13 19:10:00,34.3,25.9,29.94,SE,135,7.0,7.0,71,0.00,,,0.00,meteohub,2014-03-14 00:10:00,
2014-03-13 19:15:00,34.2,26.1,29.94,SE,135,5.0,9.0,72,0.00,,,0.00,meteohub,2014-03-14 00:15:00,
2014-03-13 19:20:00,34.0,25.9,29.94,SSE,158,7.0,9.0,72,0.00,,,0.00,meteohub,2014-03-14 00:20:00,
2014-03-13 19:25:00,34.0,26.2,29.94,SSE,158,5.0,9.0,73,0.00,,,0.00,meteohub,2014-03-14 00:25:00,
2014-03-13 19:30:00,33.8,26.4,29.94,SSE,158,6.0,9.0,74,0.00,,,0.00,meteohub,2014-03-14 00:30:00,
2014-03-13 19:35:00,33.8,26.4,29.94,SE,135,5.0,9.0,74,0.00,,,0.00,meteohub,2014-03-14 00:35:00,
2014-03-13 19:40:00,33.6,26.6,29.94,ESE,112,9.0,9.0,75,0.00,,,0.00,meteohub,2014-03-14 00:40:00,
2014-03-13 19:46:00,33.6,26.6,29.91,South,180,6.0,9.0,75,0.00,,,0.00,meteohub,2014-03-14 00:46:00,
2014-03-13 19:51:00,33.6,27.0,29.91,SSE,158,6.0,9.0,76,0.00,,,0.00,meteohub,2014-03-14 00:51:00,
2014-03-13 19:56:00,33.4,26.8,29.91,SSE,158,4.0,9.0,76,0.00,,,0.00,meteohub,2014-03-14 00:56:00,
2014-03-13 20:01:00,33.4,26.8,29.94,SSE,158,6.0,7.0,76,0.00,,,0.00,meteohub,2014-03-14 01:01:00,
2014-03-13 20:06:00,33.4,27.0,29.94,SE,135,4.0,6.0,77,0.00,,,0.00,meteohub,2014-03-14 01:06:00,
2014-03-13 20:11:00,33.4,27.0,29.94,SE,135,6.0,6.0,77,0.00,,,0.00,meteohub,2014-03-14 01:11:00,
2014-03-13 20:16:00,33.4,27.0,29.94,SSE,158,6.0,6.0,77,0.00,,,0.00,meteohub,2014-03-14 01:16:00,
2014-03-13 20:21:00,33.4,27.0,29.94,South,180,6.0,6.0,77,0.00,,,0.00,meteohub,2014-03-14 01:21:00,
2014-03-13 20:26:00,33.3,26.8,29.94,SE,135,4.0,6.0,77,0.00,,,0.00,meteohub,2014-03-14 01:26:00,
2014-03-13 20:31:00,33.3,27.1,29.94,SE,135,6.0,6.0,78,0.00,,,0.00,meteohub,2014-03-14 01:31:00,
2014-03-13 20:36:00,33.3,27.1,29.94,SSE,158,4.0,6.0,78,0.00,,,0.00,meteohub,2014-03-14 01:36:00,
2014-03-13 20:41:00,33.1,27.0,29.94,SSE,158,4.0,6.0,78,0.00,,,0.00,meteohub,2014-03-14 01:41:00,
2014-03-13 20:46:00,33.1,27.0,29.94,ESE,112,4.0,6.0,78,0.00,,,0.00,meteohub,2014-03-14 01:46:00,
2014-03-13 20:51:00,33.1,27.3,29.94,SSE,158,2.0,6.0,79,0.00,,,0.00,meteohub,2014-03-14 01:51:00,
2014-03-13 20:56:00,33.1,27.3,29.94,ESE,112,2.0,6.0,79,0.00,,,0.00,meteohub,2014-03-14 01:56:00,
2014-03-13 21:01:00,33.1,27.3,29.91,SE,135,4.0,5.0,79,0.00,,,0.00,meteohub,2014-03-14 02:01:00,
2014-03-13 21:06:00,33.1,27.3,29.91,SSE,158,3.0,5.0,79,0.00,,,0.00,meteohub,2014-03-14 02:06:00,
2014-03-13 21:11:00,33.3,27.5,29.91,SSW,202,5.0,5.0,79,0.00,,,0.00,meteohub,2014-03-14 02:11:00,
2014-03-13 21:16:00,33.3,27.5,29.91,WNW,292,4.0,5.0,79,0.00,,,0.00,meteohub,2014-03-14 02:16:00,
2014-03-13 21:21:00,33.4,28.0,29.91,South,180,2.0,6.0,80,0.00,,,0.00,meteohub,2014-03-14 02:21:00,
2014-03-13 21:26:00,33.6,28.4,29.91,SSE,158,5.0,6.0,81,0.00,,,0.00,meteohub,2014-03-14 02:26:00,
2014-03-13 21:31:00,33.8,28.2,29.91,SW,225,4.0,6.0,80,0.00,,,0.00,meteohub,2014-03-14 02:31:00,
2014-03-13 21:36:00,33.8,28.6,29.91,SSW,202,5.0,6.0,81,0.00,,,0.00,meteohub,2014-03-14 02:36:00,
2014-03-13 21:41:00,34.0,28.8,29.91,SE,135,3.0,6.0,81,0.00,,,0.00,meteohub,2014-03-14 02:41:00,
2014-03-13 21:46:00,34.2,28.9,29.91,SSE,158,4.0,6.0,81,0.00,,,0.00,meteohub,2014-03-14 02:46:00,
2014-03-13 21:51:00,34.3,29.1,29.91,SSE,158,3.0,6.0,81,0.00,,,0.00,meteohub,2014-03-14 02:51:00,
2014-03-13 21:56:00,34.5,29.7,29.91,NNW,338,5.0,6.0,82,0.00,,,0.00,meteohub,2014-03-14 02:56:00,
2014-03-13 22:01:00,34.5,29.7,29.91,South,180,5.0,6.0,82,0.00,,,0.00,meteohub,2014-03-14 03:01:00,
2014-03-13 22:06:00,34.7,29.8,29.91,SSE,158,11.0,11.0,82,0.00,,,0.00,meteohub,2014-03-14 03:06:00,
2014-03-13 22:11:00,34.9,30.2,29.91,SSW,202,2.0,11.0,83,0.00,,,0.00,meteohub,2014-03-14 03:11:00,
2014-03-13 22:16:00,35.1,30.4,29.91,South,180,4.0,11.0,83,0.00,,,0.00,meteohub,2014-03-14 03:16:00,
2014-03-13 22:21:00,35.4,30.7,29.91,WSW,248,5.0,11.0,83,0.00,,,0.00,meteohub,2014-03-14 03:21:00,
2014-03-13 22:26:00,35.6,30.9,29.91,SSW,202,5.0,6.0,83,0.00,,,0.00,meteohub,2014-03-14 03:26:00,
2014-03-13 22:31:00,35.8,31.1,29.91,SSW,202,6.0,6.0,83,0.00,,,0.00,meteohub,2014-03-14 03:31:00,
2014-03-13 22:37:00,35.8,31.1,29.91,SE,135,6.0,10.0,83,0.00,,,0.00,meteohub,2014-03-14 03:37:00,
2014-03-13 22:42:00,35.8,31.1,29.91,SSE,158,4.0,10.0,83,0.00,,,0.00,meteohub,2014-03-14 03:42:00,
2014-03-13 22:47:00,36.0,31.3,29.88,SW,225,8.0,10.0,83,0.00,,,0.00,meteohub,2014-03-14 03:47:00,
2014-03-13 22:52:00,36.0,31.3,29.88,SSE,158,4.0,8.0,83,0.00,,,0.00,meteohub,2014-03-14 03:52:00,
2014-03-13 22:57:00,36.1,31.5,29.88,SSE,158,6.0,8.0,83,0.00,,,0.00,meteohub,2014-03-14 03:57:00,
2014-03-13 23:01:00,36.1,31.3,29.88,SE,135,3.0,9.0,82,0.00,,,0.00,meteohub,2014-03-14 04:01:00,
2014-03-13 23:02:00,36.1,31.3,29.88,East,90,6.0,9.0,82,0.00,,,0.00,meteohub,2014-03-14 04:02:00,
2014-03-13 23:07:00,36.1,31.3,29.88,ESE,112,7.0,9.0,82,0.00,,,0.00,meteohub,2014-03-14 04:07:00,
2014-03-13 23:12:00,36.1,31.3,29.88,SSE,158,4.0,9.0,82,0.00,,,0.00,meteohub,2014-03-14 04:12:00,
2014-03-13 23:17:00,36.1,31.3,29.88,ESE,112,10.0,10.0,82,0.00,,,0.00,meteohub,2014-03-14 04:17:00,
2014-03-13 23:22:00,36.3,31.3,29.88,South,180,4.0,10.0,82,0.00,,,0.00,meteohub,2014-03-14 04:22:00,
2014-03-13 23:27:00,36.3,31.3,29.88,South,180,6.0,10.0,82,0.00,,,0.00,meteohub,2014-03-14 04:27:00,
2014-03-13 23:32:00,36.5,31.5,29.88,SSE,158,5.0,10.0,82,0.00,,,0.00,meteohub,2014-03-14 04:32:00,
2014-03-13 23:37:00,36.7,32.0,29.88,South,180,6.0,10.0,83,0.00,,,0.00,meteohub,2014-03-14 04:37:00,
2014-03-13 23:42:00,36.9,31.8,29.88,SE,135,6.0,10.0,82,0.00,,,0.00,meteohub,2014-03-14 04:42:00,
2014-03-13 23:47:00,36.9,31.8,29.88,NNW,338,5.0,12.0,82,0.00,,,0.00,meteohub,2014-03-14 04:47:00,
2014-03-13 23:52:00,37.0,32.0,29.88,WSW,248,6.0,12.0,82,0.00,,,0.00,meteohub,2014-03-14 04:52:00,
2014-03-13 23:57:00,37.2,32.2,29.88,WSW,248,4.0,10.0,82,0.00,,,0.00,meteohub,2014-03-14 04:57:00,